,,PA_Meas_PMT16A,,PR_Meas_QMR101_102,,RH_Meas_QMH101,,SR_Meas_QMS101,,TA_Meas_QMH101,,GenWind,,GenWind,
time,status,PA,status,PR,status,RH,status,SR,status,TA,status,DirAvg,status,SpdAvg,
2010-06-05, 00:00:04,VALID,919.104,VALID,0.2,VALID,96.9317,VALID,0,VALID,20.5804,VALID,28,VALID,0.314453,
2010-06-05, 00:01:04,VALID,919.082,VALID,0,VALID,96.886,VALID,0,VALID,20.5414,VALID,135,VALID,0.667188,
2010-06-05, 00:02:04,VALID,919.05,VALID,0,VALID,96.8784,VALID,0,VALID,20.5414,VALID,135,VALID,1.075,
2010-06-05, 00:03:04,VALID,919.017,VALID,0,VALID,96.9012,VALID,0,VALID,20.5399,VALID,135,VALID,1.25664,
2010-06-05, 00:04:04,VALID,919.027,VALID,0,VALID,96.8707,VALID,0,VALID,20.4813,VALID,59,VALID,1.82148,
2010-06-05, 00:05:04,VALID,919.043,VALID,0,VALID,96.8784,VALID,0,VALID,20.5024,VALID,64,VALID,1.41016,
2010-06-05, 00:06:04,VALID,919.038,VALID,0,VALID,96.8784,VALID,0,VALID,20.4829,VALID,65,VALID,1.38945,
2010-06-05, 00:07:04,VALID,919.038,VALID,0.2,VALID,96.8555,VALID,0,VALID,20.4423,VALID,65,VALID,1.29453,
2010-06-05, 00:08:04,VALID,919.04,VALID,0,VALID,96.8326,VALID,0,VALID,20.4439,VALID,65,VALID,1.38945,
2010-06-05, 00:09:04,VALID,919.073,VALID,0,VALID,96.886,VALID,0,VALID,20.4423,VALID,65,VALID,0.614844,
2010-06-05, 00:10:04,VALID,919.073,VALID,0,VALID,96.9089,VALID,0,VALID,20.4813,VALID,65,VALID,0.426172,
2010-06-05, 00:11:04,VALID,919.073,VALID,0,VALID,96.8936,VALID,0,VALID,20.4829,VALID,65,VALID,0.257813,
2010-06-05, 00:12:04,VALID,919.038,VALID,0,VALID,96.886,VALID,0,VALID,20.5024,VALID,65,VALID,0.162109,
2010-06-05, 00:13:04,VALID,919.064,VALID,0,VALID,96.886,VALID,0,VALID,20.4618,VALID,64,VALID,0.550391,
2010-06-05, 00:14:04,VALID,919.078,VALID,0,VALID,96.8936,VALID,0,VALID,20.5024,VALID,64,VALID,0.394141,
2010-06-05, 00:15:04,VALID,919.058,VALID,0,VALID,96.886,VALID,0,VALID,20.4618,VALID,64,VALID,0.467578,
2010-06-05, 00:16:04,VALID,919.039,VALID,0,VALID,96.8784,VALID,0,VALID,20.4423,VALID,65,VALID,0.511328,
2010-06-05, 00:17:04,VALID,919.047,VALID,0,VALID,96.8631,VALID,0,VALID,20.4228,VALID,65,VALID,0.603125,
2010-06-05, 00:18:04,VALID,919,VALID,0,VALID,96.8707,VALID,0,VALID,20.4244,VALID,65,VALID,0.521094,
2010-06-05, 00:19:04,VALID,919.022,VALID,0,VALID,96.8784,VALID,0,VALID,20.4244,VALID,65,VALID,0.289063,
2010-06-05, 00:20:04,VALID,919.026,VALID,0,VALID,96.9165,VALID,0,VALID,20.4228,VALID,65,VALID,0.614062,
2010-06-05, 00:21:04,VALID,918.986,VALID,0,VALID,96.9241,VALID,0,VALID,20.4634,VALID,65,VALID,0.591016,
2010-06-05, 00:22:04,VALID,919.021,VALID,0,VALID,96.9165,VALID,0,VALID,20.4634,VALID,64,VALID,0.491406,
2010-06-05, 00:23:04,VALID,918.989,VALID,0,VALID,96.9317,VALID,0,VALID,20.4439,VALID,65,VALID,0.56875,
2010-06-05, 00:24:04,VALID,918.994,VALID,0,VALID,96.9317,VALID,0,VALID,20.4244,VALID,65,VALID,0.830469,
2010-06-05, 00:25:04,VALID,919.011,VALID,0,VALID,96.9394,VALID,0,VALID,20.4033,VALID,65,VALID,1.02969,
2010-06-05, 00:26:04,VALID,918.988,VALID,0,VALID,96.9622,VALID,0,VALID,20.4244,VALID,65,VALID,1.04688,
2010-06-05, 00:27:04,VALID,919.011,VALID,0,VALID,96.9851,VALID,0,VALID,20.4439,VALID,43,VALID,0.936328,
2010-06-05, 00:28:04,VALID,918.958,VALID,0,VALID,96.9927,VALID,0,VALID,20.4634,VALID,1,VALID,1.14688,
2010-06-05, 00:29:04,VALID,919,VALID,0,VALID,96.9851,VALID,0,VALID,20.4244,VALID,1,VALID,1.15625,
2010-06-05, 00:30:04,VALID,918.984,VALID,0.2,VALID,96.9851,VALID,0,VALID,20.4049,VALID,1,VALID,1.16133,
2010-06-05, 00:31:04,VALID,919.004,VALID,0,VALID,96.9927,VALID,0,VALID,20.4049,VALID,1,VALID,1.20078,
2010-06-05, 00:32:04,VALID,918.991,VALID,0,VALID,96.9927,VALID,0,VALID,20.4049,VALID,1,VALID,0.815625,
2010-06-05, 00:33:04,VALID,918.975,VALID,0,VALID,97.0156,VALID,0,VALID,20.3854,VALID,360,VALID,0.440625,
2010-06-05, 00:34:04,VALID,918.984,VALID,0,VALID,97.0232,VALID,0,VALID,20.4049,VALID,360,VALID,0.250781,
2010-06-05, 00:35:04,VALID,918.973,VALID,0.2,VALID,97.0613,VALID,0,VALID,20.4228,VALID,360,VALID,0.00585938,
2010-06-05, 00:36:04,VALID,918.956,VALID,0,VALID,97.069,VALID,0,VALID,20.4634,VALID,1,VALID,0.2,
2010-06-05, 00:37:04,VALID,918.947,VALID,0,VALID,97.0613,VALID,0,VALID,20.4634,VALID,360,VALID,0.179688,
2010-06-05, 00:38:04,VALID,918.944,VALID,0,VALID,97.0842,VALID,0,VALID,20.4634,VALID,360,VALID,0.924609,
2010-06-05, 00:39:04,VALID,918.949,VALID,0,VALID,97.0918,VALID,0,VALID,20.4829,VALID,36,VALID,1.00586,
2010-06-05, 00:40:04,VALID,918.952,VALID,0,VALID,97.0918,VALID,0,VALID,20.4829,VALID,37,VALID,0.971484,
2010-06-05, 00:41:04,VALID,918.965,VALID,0,VALID,97.0842,VALID,0,VALID,20.4228,VALID,7,VALID,1.0207,
2010-06-05, 00:42:04,VALID,918.94,VALID,0.2,VALID,97.0842,VALID,0,VALID,20.4423,VALID,342,VALID,0.725781,
2010-06-05, 00:43:04,VALID,918.923,VALID,0,VALID,97.1071,VALID,0,VALID,20.4634,VALID,338,VALID,1.14219,
2010-06-05, 00:44:04,VALID,918.908,VALID,0,VALID,97.1071,VALID,0,VALID,20.4634,VALID,35,VALID,1.63789,
2010-06-05, 00:45:04,VALID,918.924,VALID,0,VALID,97.0994,VALID,0.107441,VALID,20.4033,VALID,29,VALID,1.11563,
2010-06-05, 00:46:04,VALID,918.942,VALID,0,VALID,97.1299,VALID,0,VALID,20.4244,VALID,10,VALID,1.22109,
2010-06-05, 00:47:04,VALID,918.916,VALID,0.2,VALID,97.1147,VALID,0,VALID,20.4049,VALID,9,VALID,0.880469,
2010-06-05, 00:48:04,VALID,918.907,VALID,0,VALID,97.1299,VALID,0,VALID,20.4033,VALID,9,VALID,1.07891,
2010-06-05, 00:49:04,VALID,918.919,VALID,0,VALID,97.1147,VALID,0,VALID,20.3838,VALID,9,VALID,0.691016,
2010-06-05, 00:50:04,VALID,918.91,VALID,0,VALID,97.1376,VALID,0.107441,VALID,20.3838,VALID,9,VALID,0.0132813,
2010-06-05, 00:51:04,VALID,918.894,VALID,0,VALID,97.1299,VALID,0,VALID,20.3854,VALID,9,VALID,0.582422,
2010-06-05, 00:52:04,VALID,918.873,VALID,0.2,VALID,97.1528,VALID,0,VALID,20.3854,VALID,9,VALID,0.96875,
2010-06-05, 00:53:04,VALID,918.83,VALID,0,VALID,97.1604,VALID,0,VALID,20.3854,VALID,9,VALID,1.22617,
2010-06-05, 00:54:04,VALID,918.805,VALID,0,VALID,97.1528,VALID,0,VALID,20.3448,VALID,9,VALID,1.45547,
2010-06-05, 00:55:04,VALID,918.765,VALID,0.2,VALID,97.1376,VALID,0,VALID,20.2879,VALID,9,VALID,1.24219,
2010-06-05, 00:56:04,VALID,918.777,VALID,0,VALID,97.1604,VALID,0,VALID,20.3074,VALID,9,VALID,0.989844,
2010-06-05, 00:57:04,VALID,918.751,VALID,0,VALID,97.1604,VALID,0,VALID,20.3074,VALID,9,VALID,0.857031,
2010-06-05, 00:58:04,VALID,918.774,VALID,0.2,VALID,97.1757,VALID,0,VALID,20.2863,VALID,329,VALID,0.0621094,
2010-06-05, 00:59:04,VALID,918.774,VALID,0,VALID,97.1681,VALID,0,VALID,20.2879,VALID,329,VALID,0.000390625,
2010-06-05, 01:00:04,VALID,918.76,VALID,0.2,VALID,97.1986,VALID,0,VALID,20.2879,VALID,329,VALID,0.425391,
2010-06-05, 01:01:04,VALID,918.721,VALID,0,VALID,97.1909,VALID,0,VALID,20.2489,VALID,329,VALID,0.650781,
2010-06-05, 01:02:04,VALID,918.735,VALID,0,VALID,97.1833,VALID,0,VALID,20.2489,VALID,329,VALID,0.903125,
2010-06-05, 01:03:04,VALID,918.742,VALID,0.2,VALID,97.1681,VALID,0,VALID,20.2293,VALID,329,VALID,1.0875,
2010-06-05, 01:04:04,VALID,918.725,VALID,0,VALID,97.1986,VALID,0,VALID,20.2293,VALID,329,VALID,0.423438,
2010-06-05, 01:05:04,VALID,918.69,VALID,0.2,VALID,97.1986,VALID,0,VALID,20.2684,VALID,329,VALID,0.814844,
2010-06-05, 01:06:04,VALID,918.639,VALID,0,VALID,97.2214,VALID,0,VALID,20.2278,VALID,329,VALID,1.36055,
2010-06-05, 01:07:04,VALID,918.603,VALID,0.2,VALID,97.1909,VALID,0,VALID,20.1903,VALID,329,VALID,0.866016,
2010-06-05, 01:08:04,VALID,918.567,VALID,0,VALID,97.1757,VALID,0,VALID,20.1903,VALID,337,VALID,1.38437,
2010-06-05, 01:09:04,VALID,918.587,VALID,0,VALID,97.1986,VALID,0,VALID,20.1903,VALID,5,VALID,1.26875,
2010-06-05, 01:10:04,VALID,918.557,VALID,0.2,VALID,97.1909,VALID,0,VALID,20.1708,VALID,358,VALID,1.23828,
2010-06-05, 01:11:04,VALID,918.531,VALID,0,VALID,97.2062,VALID,0,VALID,20.1708,VALID,347,VALID,1.17969,
2010-06-05, 01:12:04,VALID,918.493,VALID,0,VALID,97.2062,VALID,0,VALID,20.1903,VALID,347,VALID,1.32852,
2010-06-05, 01:13:04,VALID,918.477,VALID,0.2,VALID,97.2062,VALID,0,VALID,20.1513,VALID,347,VALID,1.36094,
2010-06-05, 01:14:04,VALID,918.478,VALID,0,VALID,97.2138,VALID,0,VALID,20.1513,VALID,347,VALID,1.21328,
2010-06-05, 01:15:04,VALID,918.45,VALID,0,VALID,97.2214,VALID,0,VALID,20.1318,VALID,347,VALID,0.832812,
2010-06-05, 01:16:04,VALID,918.438,VALID,0.2,VALID,97.2138,VALID,0,VALID,20.1513,VALID,341,VALID,1.38945,
2010-06-05, 01:17:04,VALID,918.433,VALID,0,VALID,97.2138,VALID,0,VALID,20.1318,VALID,1,VALID,1.49531,
2010-06-05, 01:18:04,VALID,918.395,VALID,0,VALID,97.229,VALID,0,VALID,20.1318,VALID,356,VALID,1.55156,
2010-06-05, 01:19:04,VALID,918.381,VALID,0.2,VALID,97.229,VALID,0,VALID,20.1318,VALID,22,VALID,1.2207,
2010-06-05, 01:20:04,VALID,918.366,VALID,0,VALID,97.229,VALID,0,VALID,20.1318,VALID,18,VALID,1.94062,
2010-06-05, 01:21:04,VALID,918.316,VALID,0,VALID,97.229,VALID,0,VALID,20.1123,VALID,13,VALID,2.70469,
2010-06-05, 01:22:04,VALID,918.276,VALID,0.2,VALID,97.2367,VALID,0,VALID,20.0928,VALID,340,VALID,1.96953,
2010-06-05, 01:23:04,VALID,918.259,VALID,0,VALID,97.229,VALID,0,VALID,20.1123,VALID,26,VALID,1.48008,
2010-06-05, 01:24:04,VALID,918.268,VALID,0,VALID,97.2443,VALID,0,VALID,20.0928,VALID,40,VALID,2.52813,
2010-06-05, 01:25:04,VALID,918.271,VALID,0,VALID,97.2595,VALID,0,VALID,20.1123,VALID,5,VALID,0.999219,
2010-06-05, 01:26:04,VALID,918.31,VALID,0.2,VALID,97.2672,VALID,0,VALID,20.1123,VALID,342,VALID,1.09375,
2010-06-05, 01:27:04,VALID,918.255,VALID,0,VALID,97.2672,VALID,0,VALID,20.1318,VALID,6,VALID,1.5707,
2010-06-05, 01:28:04,VALID,918.289,VALID,0.2,VALID,97.2519,VALID,0,VALID,20.0733,VALID,345,VALID,2.09609,
2010-06-05, 01:29:04,VALID,918.26,VALID,0,VALID,97.2595,VALID,0,VALID,20.0928,VALID,342,VALID,0.930859,
2010-06-05, 01:30:04,VALID,918.29,VALID,0.2,VALID,97.2672,VALID,0,VALID,20.0928,VALID,42,VALID,1.35312,
2010-06-05, 01:31:04,VALID,918.247,VALID,0.2,VALID,97.2824,VALID,0,VALID,20.0733,VALID,5,VALID,1.78086,
2010-06-05, 01:32:04,VALID,918.229,VALID,0.2,VALID,97.29,VALID,0,VALID,20.0749,VALID,327,VALID,1.2543,
2010-06-05, 01:33:04,VALID,918.21,VALID,0,VALID,97.2824,VALID,0,VALID,20.0148,VALID,10,VALID,2.63047,
2010-06-05, 01:34:04,VALID,918.185,VALID,0.2,VALID,97.2519,VALID,0,VALID,19.9953,VALID,13,VALID,1.85391,
2010-06-05, 01:35:04,VALID,918.202,VALID,0.2,VALID,97.29,VALID,0,VALID,19.9953,VALID,1,VALID,1.5957,
2010-06-05, 01:36:04,VALID,918.19,VALID,0.2,VALID,97.2748,VALID,0,VALID,19.9953,VALID,20,VALID,1.11211,
2010-06-05, 01:37:04,VALID,918.162,VALID,0,VALID,97.2824,VALID,0,VALID,19.9953,VALID,20,VALID,1.00664,
2010-06-05, 01:38:04,VALID,918.14,VALID,0.2,VALID,97.29,VALID,0,VALID,19.9953,VALID,25,VALID,1.00273,
2010-06-05, 01:39:04,VALID,918.148,VALID,0,VALID,97.3205,VALID,0,VALID,19.9758,VALID,18,VALID,2.13633,
2010-06-05, 01:40:04,VALID,918.164,VALID,0,VALID,97.2977,VALID,0,VALID,19.9758,VALID,355,VALID,0.947656,
2010-06-05, 01:41:04,VALID,918.176,VALID,0.2,VALID,97.3129,VALID,0,VALID,19.9563,VALID,347,VALID,1.27656,
2010-06-05, 01:42:04,VALID,918.175,VALID,0,VALID,97.3205,VALID,0,VALID,19.9758,VALID,347,VALID,0.669531,
2010-06-05, 01:43:04,VALID,918.149,VALID,0.2,VALID,97.3205,VALID,0,VALID,19.9563,VALID,347,VALID,0.479297,
2010-06-05, 01:44:04,VALID,918.153,VALID,0,VALID,97.3358,VALID,0,VALID,19.9953,VALID,347,VALID,1.27813,
2010-06-05, 01:45:04,VALID,918.164,VALID,0.2,VALID,97.3434,VALID,0,VALID,20.0343,VALID,347,VALID,0.994922,
2010-06-05, 01:46:04,VALID,918.17,VALID,0,VALID,97.351,VALID,0,VALID,20.0538,VALID,347,VALID,1.30742,
2010-06-05, 01:47:04,VALID,918.197,VALID,0.2,VALID,97.3281,VALID,0,VALID,20.0358,VALID,347,VALID,0.962109,
2010-06-05, 01:48:04,VALID,918.234,VALID,0,VALID,97.3434,VALID,0,VALID,20.0343,VALID,347,VALID,0.844141,
2010-06-05, 01:49:04,VALID,918.212,VALID,0.2,VALID,97.3586,VALID,0,VALID,20.0538,VALID,347,VALID,0.972656,
2010-06-05, 01:50:04,VALID,918.221,VALID,0,VALID,97.3586,VALID,0,VALID,20.0733,VALID,347,VALID,1.00508,
2010-06-05, 01:51:04,VALID,918.186,VALID,0.2,VALID,97.3434,VALID,0,VALID,20.0538,VALID,38,VALID,1.43281,
2010-06-05, 01:52:04,VALID,918.167,VALID,0,VALID,97.351,VALID,0,VALID,20.0538,VALID,38,VALID,1.08906,
2010-06-05, 01:53:04,VALID,918.176,VALID,0.2,VALID,97.351,VALID,0,VALID,20.0538,VALID,38,VALID,1.21914,
2010-06-05, 01:54:04,VALID,918.149,VALID,0,VALID,97.351,VALID,0,VALID,20.0538,VALID,38,VALID,1.04023,
2010-06-05, 01:55:04,VALID,918.157,VALID,0.2,VALID,97.3663,VALID,0,VALID,20.0733,VALID,38,VALID,1.08398,
2010-06-05, 01:56:04,VALID,918.13,VALID,0,VALID,97.351,VALID,0,VALID,20.0733,VALID,38,VALID,1.05039,
2010-06-05, 01:57:04,VALID,918.142,VALID,0.2,VALID,97.3739,VALID,0,VALID,20.1139,VALID,38,VALID,0.916797,
2010-06-05, 01:58:04,VALID,918.093,VALID,0,VALID,97.3815,VALID,0,VALID,20.0928,VALID,38,VALID,0.963672,
2010-06-05, 01:59:04,VALID,918.063,VALID,0.2,VALID,97.3663,VALID,0,VALID,20.0733,VALID,38,VALID,0.689453,
2010-06-05, 02:00:04,VALID,918.029,VALID,0.2,VALID,97.3891,VALID,0,VALID,20.0538,VALID,38,VALID,1.09102,
2010-06-05, 02:01:04,VALID,918.043,VALID,0.2,VALID,97.3663,VALID,0,VALID,20.0358,VALID,17,VALID,0.979688,
2010-06-05, 02:02:04,VALID,918.004,VALID,0.2,VALID,97.3663,VALID,0,VALID,19.9758,VALID,17,VALID,0.990234,
2010-06-05, 02:03:04,VALID,918.012,VALID,0,VALID,97.3891,VALID,0,VALID,19.9563,VALID,17,VALID,1.1543,
2010-06-05, 02:04:04,VALID,917.985,VALID,0.2,VALID,97.3815,VALID,0,VALID,19.9563,VALID,14,VALID,0.939844,
2010-06-05, 02:05:04,VALID,917.942,VALID,0,VALID,97.3815,VALID,0,VALID,19.9563,VALID,14,VALID,0.846484,
2010-06-05, 02:06:04,VALID,917.913,VALID,0,VALID,97.3968,VALID,0,VALID,19.9758,VALID,14,VALID,0.928125,
2010-06-05, 02:07:04,VALID,917.9,VALID,0,VALID,97.3891,VALID,0,VALID,19.9968,VALID,14,VALID,1.025,
2010-06-05, 02:08:04,VALID,917.865,VALID,0.2,VALID,97.3891,VALID,0,VALID,19.9953,VALID,14,VALID,0.828906,
2010-06-05, 02:09:04,VALID,917.884,VALID,0,VALID,97.3968,VALID,0,VALID,19.9758,VALID,14,VALID,0.541016,
2010-06-05, 02:10:04,VALID,917.834,VALID,0,VALID,97.4044,VALID,0,VALID,19.9773,VALID,14,VALID,0.516016,
2010-06-05, 02:11:04,VALID,917.834,VALID,0,VALID,97.4044,VALID,0,VALID,19.9758,VALID,14,VALID,0.576953,
2010-06-05, 02:12:04,VALID,917.813,VALID,0.2,VALID,97.3968,VALID,0,VALID,19.9968,VALID,14,VALID,0.703125,
2010-06-05, 02:13:04,VALID,917.822,VALID,0,VALID,97.3968,VALID,0,VALID,19.9758,VALID,14,VALID,0.767578,
2010-06-05, 02:14:04,VALID,917.804,VALID,0,VALID,97.3891,VALID,0,VALID,19.9953,VALID,14,VALID,1.2957,
2010-06-05, 02:15:04,VALID,917.789,VALID,0.2,VALID,97.3891,VALID,0,VALID,19.9758,VALID,33,VALID,1.31055,
2010-06-05, 02:16:04,VALID,917.8,VALID,0,VALID,97.412,VALID,0,VALID,19.9758,VALID,33,VALID,0.930469,
2010-06-05, 02:17:04,VALID,917.776,VALID,0,VALID,97.4196,VALID,0,VALID,19.9773,VALID,4,VALID,1.27422,
2010-06-05, 02:18:04,VALID,917.803,VALID,0,VALID,97.3891,VALID,0,VALID,19.9563,VALID,15,VALID,1.93984,
2010-06-05, 02:19:04,VALID,917.792,VALID,0.2,VALID,97.412,VALID,0,VALID,19.9383,VALID,2,VALID,1.76875,
2010-06-05, 02:20:04,VALID,917.771,VALID,0,VALID,97.4196,VALID,0,VALID,19.8978,VALID,19,VALID,1.5293,
2010-06-05, 02:21:04,VALID,917.741,VALID,0,VALID,97.4196,VALID,0,VALID,19.9188,VALID,9,VALID,1.69727,
2010-06-05, 02:22:04,VALID,917.722,VALID,0.2,VALID,97.4349,VALID,0,VALID,19.8783,VALID,20,VALID,1.44336,
2010-06-05, 02:23:04,VALID,917.713,VALID,0,VALID,97.4273,VALID,0,VALID,19.8588,VALID,18,VALID,1.88867,
2010-06-05, 02:24:04,VALID,917.709,VALID,0,VALID,97.4273,VALID,0,VALID,19.8393,VALID,353,VALID,1.25547,
2010-06-05, 02:25:04,VALID,917.682,VALID,0,VALID,97.4349,VALID,0,VALID,19.8393,VALID,359,VALID,1.76406,
2010-06-05, 02:26:04,VALID,917.688,VALID,0,VALID,97.4349,VALID,0,VALID,19.8198,VALID,355,VALID,1.74688,
2010-06-05, 02:27:04,VALID,917.661,VALID,0.2,VALID,97.4273,VALID,0,VALID,19.8393,VALID,13,VALID,1.90391,
2010-06-05, 02:28:04,VALID,917.615,VALID,0,VALID,97.4425,VALID,0,VALID,19.8213,VALID,3,VALID,3.01445,
2010-06-05, 02:29:04,VALID,917.626,VALID,0,VALID,97.4501,VALID,0,VALID,19.8003,VALID,21,VALID,1.97227,
2010-06-05, 02:30:04,VALID,917.623,VALID,0,VALID,97.473,VALID,0,VALID,19.8198,VALID,42,VALID,2.16875,
2010-06-05, 02:31:04,VALID,917.604,VALID,0,VALID,97.4273,VALID,0,VALID,19.8003,VALID,356,VALID,2.13164,
2010-06-05, 02:32:04,VALID,917.597,VALID,0,VALID,97.4349,VALID,0,VALID,19.8018,VALID,350,VALID,2.50156,
2010-06-05, 02:33:04,VALID,917.523,VALID,0.2,VALID,97.4577,VALID,0,VALID,19.7613,VALID,352,VALID,1.98867,
2010-06-05, 02:34:04,VALID,917.503,VALID,0,VALID,97.4806,VALID,0,VALID,19.7613,VALID,350,VALID,2.29766,
2010-06-05, 02:35:04,VALID,917.523,VALID,0,VALID,97.4425,VALID,0,VALID,19.7613,VALID,317,VALID,1.46641,
2010-06-05, 02:36:04,VALID,917.548,VALID,0,VALID,97.4654,VALID,0,VALID,19.7613,VALID,356,VALID,1.31211,
2010-06-05, 02:37:04,VALID,917.527,VALID,0,VALID,97.4654,VALID,0,VALID,19.7613,VALID,352,VALID,0.830859,
2010-06-05, 02:38:04,VALID,917.519,VALID,0,VALID,97.4577,VALID,0,VALID,19.7613,VALID,10,VALID,0.675781,
2010-06-05, 02:39:04,VALID,917.502,VALID,0,VALID,97.4806,VALID,0,VALID,19.7613,VALID,10,VALID,1.51641,
2010-06-05, 02:40:04,VALID,917.515,VALID,0,VALID,97.4654,VALID,0,VALID,19.7418,VALID,38,VALID,0.821875,
2010-06-05, 02:41:04,VALID,917.492,VALID,0.2,VALID,97.4654,VALID,0,VALID,19.7223,VALID,9,VALID,1.75703,
2010-06-05, 02:42:04,VALID,917.513,VALID,0,VALID,97.4654,VALID,0,VALID,19.7223,VALID,7,VALID,1.17773,
2010-06-05, 02:43:04,VALID,917.481,VALID,0,VALID,97.4654,VALID,0,VALID,19.7418,VALID,7,VALID,0.284375,
2010-06-05, 02:44:05,VALID,917.459,VALID,0,VALID,97.4806,VALID,0,VALID,19.7418,VALID,355,VALID,2.01094,
2010-06-05, 02:45:05,VALID,917.446,VALID,0,VALID,97.4806,VALID,0,VALID,19.7223,VALID,18,VALID,2.03633,
2010-06-05, 02:46:05,VALID,917.456,VALID,0,VALID,97.4806,VALID,0,VALID,19.7418,VALID,17,VALID,1.52891,
2010-06-05, 02:47:05,VALID,917.461,VALID,0,VALID,97.4654,VALID,0,VALID,19.7223,VALID,9,VALID,1.47695,
2010-06-05, 02:48:05,VALID,917.436,VALID,0,VALID,97.4959,VALID,0,VALID,19.7433,VALID,9,VALID,1.03945,
2010-06-05, 02:49:05,VALID,917.43,VALID,0.2,VALID,97.5035,VALID,0,VALID,19.7028,VALID,9,VALID,1.49805,
2010-06-05, 02:50:05,VALID,917.433,VALID,0,VALID,97.4806,VALID,0,VALID,19.7628,VALID,9,VALID,1.15742,
2010-06-05, 02:51:05,VALID,917.434,VALID,0,VALID,97.4806,VALID,0,VALID,19.7223,VALID,9,VALID,0.850781,
2010-06-05, 02:52:05,VALID,917.453,VALID,0,VALID,97.4882,VALID,0,VALID,19.7433,VALID,9,VALID,1.13398,
2010-06-05, 02:53:05,VALID,917.44,VALID,0,VALID,97.4882,VALID,0,VALID,19.7238,VALID,9,VALID,0.706641,
2010-06-05, 02:54:05,VALID,917.452,VALID,0,VALID,97.5035,VALID,0,VALID,19.7223,VALID,9,VALID,1.00273,
2010-06-05, 02:55:05,VALID,917.434,VALID,0,VALID,97.4959,VALID,0,VALID,19.7418,VALID,9,VALID,1.05039,
2010-06-05, 02:56:05,VALID,917.438,VALID,0,VALID,97.4959,VALID,0,VALID,19.7418,VALID,9,VALID,0.861719,
2010-06-05, 02:57:05,VALID,917.421,VALID,0,VALID,97.4882,VALID,0,VALID,19.7418,VALID,9,VALID,1.13516,
2010-06-05, 02:58:05,VALID,917.424,VALID,0.2,VALID,97.5035,VALID,0,VALID,19.7418,VALID,8,VALID,0.639453,
2010-06-05, 02:59:05,VALID,917.469,VALID,0,VALID,97.5264,VALID,0,VALID,19.7223,VALID,346,VALID,1.06484,
2010-06-05, 03:00:05,VALID,917.416,VALID,0,VALID,97.4959,VALID,0,VALID,19.7223,VALID,15,VALID,1.30938,
2010-06-05, 03:01:05,VALID,917.421,VALID,0,VALID,97.5187,VALID,0,VALID,19.7628,VALID,15,VALID,0.703516,
2010-06-05, 03:02:05,VALID,917.394,VALID,0,VALID,97.4959,VALID,0,VALID,19.6833,VALID,15,VALID,1.44414,
2010-06-05, 03:03:05,VALID,917.378,VALID,0,VALID,97.5111,VALID,0,VALID,19.7028,VALID,15,VALID,1.33555,
2010-06-05, 03:04:05,VALID,917.377,VALID,0,VALID,97.5035,VALID,0,VALID,19.7028,VALID,15,VALID,0.404297,
2010-06-05, 03:05:05,VALID,917.356,VALID,0,VALID,97.5264,VALID,0,VALID,19.7043,VALID,15,VALID,0.515625,
2010-06-05, 03:06:05,VALID,917.395,VALID,0,VALID,97.4882,VALID,0,VALID,19.7028,VALID,15,VALID,0.312109,
2010-06-05, 03:07:05,VALID,917.374,VALID,0,VALID,97.4959,VALID,0,VALID,19.6833,VALID,16,VALID,0.380859,
2010-06-05, 03:08:05,VALID,917.378,VALID,0,VALID,97.5111,VALID,0,VALID,19.7028,VALID,15,VALID,1.16914,
2010-06-05, 03:09:05,VALID,917.38,VALID,0,VALID,97.5111,VALID,0,VALID,19.7238,VALID,15,VALID,0.943359,
2010-06-05, 03:10:05,VALID,917.4,VALID,0,VALID,97.5035,VALID,0,VALID,19.7043,VALID,15,VALID,0.701563,
2010-06-05, 03:11:05,VALID,917.387,VALID,0,VALID,97.5187,VALID,0,VALID,19.6638,VALID,15,VALID,1.31875,
2010-06-05, 03:12:05,VALID,917.41,VALID,0.2,VALID,97.5035,VALID,0,VALID,19.6443,VALID,15,VALID,1.46445,
2010-06-05, 03:13:05,VALID,917.425,VALID,0,VALID,97.5264,VALID,0,VALID,19.6638,VALID,15,VALID,0.496484,
2010-06-05, 03:14:05,VALID,917.388,VALID,0,VALID,97.5264,VALID,0,VALID,19.6848,VALID,15,VALID,1.53281,
2010-06-05, 03:15:05,VALID,917.334,VALID,0,VALID,97.5187,VALID,0.107441,VALID,19.6833,VALID,29,VALID,2.23164,
2010-06-05, 03:16:05,VALID,917.381,VALID,0,VALID,97.5035,VALID,0.107441,VALID,19.6428,VALID,329,VALID,1.33125,
2010-06-05, 03:17:05,VALID,917.411,VALID,0,VALID,97.5035,VALID,0.107441,VALID,19.6428,VALID,327,VALID,0.391016,
2010-06-05, 03:18:05,VALID,917.373,VALID,0,VALID,97.5264,VALID,0.107441,VALID,19.6233,VALID,344,VALID,1.7875,
2010-06-05, 03:19:05,VALID,917.393,VALID,0,VALID,97.534,VALID,0.107441,VALID,19.6623,VALID,344,VALID,0.741016,
2010-06-05, 03:20:05,VALID,917.416,VALID,0,VALID,97.5187,VALID,0.107441,VALID,19.6818,VALID,339,VALID,0.580859,
2010-06-05, 03:21:05,VALID,917.411,VALID,0,VALID,97.534,VALID,0.107441,VALID,19.6623,VALID,331,VALID,0.330078,
2010-06-05, 03:22:05,VALID,917.41,VALID,0,VALID,97.534,VALID,0,VALID,19.6638,VALID,331,VALID,1.07148,
2010-06-05, 03:23:05,VALID,917.418,VALID,0,VALID,97.5492,VALID,0.107441,VALID,19.6428,VALID,331,VALID,0.322656,
2010-06-05, 03:24:05,VALID,917.418,VALID,0,VALID,97.534,VALID,0.107441,VALID,19.6623,VALID,331,VALID,0.0902344,
2010-06-05, 03:25:05,VALID,917.413,VALID,0,VALID,97.534,VALID,0.107441,VALID,19.6818,VALID,331,VALID,0.117969,
2010-06-05, 03:26:05,VALID,917.409,VALID,0,VALID,97.534,VALID,0,VALID,19.6638,VALID,331,VALID,1.16133,
2010-06-05, 03:27:05,VALID,917.425,VALID,0,VALID,97.5264,VALID,0.107441,VALID,19.6833,VALID,332,VALID,0.789844,
2010-06-05, 03:28:05,VALID,917.411,VALID,0,VALID,97.5264,VALID,0,VALID,19.6428,VALID,332,VALID,1.65273,
2010-06-05, 03:29:05,VALID,917.43,VALID,0,VALID,97.5187,VALID,0,VALID,19.6623,VALID,13,VALID,1.82813,
2010-06-05, 03:30:05,VALID,917.418,VALID,0,VALID,97.5416,VALID,0.107441,VALID,19.6623,VALID,360,VALID,1.86289,
2010-06-05, 03:31:05,VALID,917.397,VALID,0,VALID,97.534,VALID,0.107441,VALID,19.6428,VALID,8,VALID,1.9625,
2010-06-05, 03:32:05,VALID,917.393,VALID,0,VALID,97.5187,VALID,0,VALID,19.6428,VALID,1,VALID,1.47461,
2010-06-05, 03:33:05,VALID,917.398,VALID,0,VALID,97.534,VALID,0.107441,VALID,19.6428,VALID,29,VALID,1.44336,
2010-06-05, 03:34:05,VALID,917.359,VALID,0,VALID,97.534,VALID,0.107441,VALID,19.6233,VALID,11,VALID,1.50039,
2010-06-05, 03:35:05,VALID,917.347,VALID,0,VALID,97.534,VALID,0.107441,VALID,19.6233,VALID,348,VALID,0.583984,
2010-06-05, 03:36:05,VALID,917.39,VALID,0,VALID,97.5264,VALID,0,VALID,19.6428,VALID,10,VALID,0.752734,
2010-06-05, 03:37:05,VALID,917.363,VALID,0,VALID,97.5416,VALID,0.107441,VALID,19.6833,VALID,10,VALID,0.00195313,
2010-06-05, 03:38:05,VALID,917.309,VALID,0,VALID,97.5187,VALID,0,VALID,19.6623,VALID,10,VALID,0.0878906,
2010-06-05, 03:39:05,VALID,917.313,VALID,0,VALID,97.5111,VALID,0,VALID,19.6833,VALID,10,VALID,0.514063,
2010-06-05, 03:40:05,VALID,917.284,VALID,0,VALID,97.5492,VALID,0.107441,VALID,19.6818,VALID,10,VALID,0.99375,
2010-06-05, 03:41:05,VALID,917.279,VALID,0,VALID,97.5416,VALID,0,VALID,19.6428,VALID,10,VALID,0.844531,
2010-06-05, 03:42:05,VALID,917.276,VALID,0,VALID,97.5264,VALID,0,VALID,19.6638,VALID,10,VALID,1.22812,
2010-06-05, 03:43:05,VALID,917.257,VALID,0,VALID,97.5416,VALID,0.107441,VALID,19.6233,VALID,350,VALID,0.827734,
2010-06-05, 03:44:05,VALID,917.24,VALID,0,VALID,97.5111,VALID,0.107441,VALID,19.6233,VALID,350,VALID,0.970703,
2010-06-05, 03:45:05,VALID,917.22,VALID,0,VALID,97.5416,VALID,0,VALID,19.6653,VALID,350,VALID,0.974219,